Location: 81360 Arifat, France
(43.7204°N, 2.3408°E)
Time: 22:08:22
(UTC+01:00)

Vanguard 1 Rocket - All Passes

Search period start: 10 December 2025 00:00
Search period end: 20 December 2025 00:00
Orbit: 651 x 4216 km, 34.3° (Epoch: 10 December)

Date Brightness Start Highest point End Pass type
(mag) Time Alt. Az. Time Alt. Az. Time Alt. Az.
10 Dec - 07:28:31 10° S 07:30:45 13° SSE 07:33:15 10° ESE visible
10 Dec - 09:49:40 10° SW 09:54:26 36° S 10:01:58 10° ESE daylight
10 Dec - 12:12:56 10° WSW 12:19:25 37° S 12:30:54 10° SE daylight
10 Dec - 14:38:16 10° WSW 14:46:00 22° SSW 14:57:38 10° SSE daylight
11 Dec - 08:38:42 10° SW 08:42:38 27° SSE 08:47:57 10° ESE daylight
11 Dec - 11:01:30 10° WSW 11:06:57 38° S 11:16:14 10° ESE daylight
11 Dec - 13:25:40 10° WSW 13:32:42 27° SSW 13:44:09 10° SSE daylight
11 Dec - 15:56:51 10° SW 15:59:55 11° SSW 16:03:21 10° SSW daylight
12 Dec - 07:28:07 10° SSW 07:30:59 17° SSE 07:34:14 10° ESE visible
12 Dec - 09:50:13 10° WSW 09:54:50 36° S 10:01:59 10° ESE daylight
12 Dec - 12:13:45 10° WSW 12:19:50 31° SSW 12:30:03 10° SE daylight
12 Dec - 14:40:14 10° WSW 14:46:19 16° SSW 14:54:35 10° S daylight
13 Dec - 08:39:03 10° SW 08:43:00 29° SSE 08:48:15 10° ESE daylight
13 Dec - 11:02:13 10° WSW 11:07:23 34° S 11:15:52 10° SE daylight
13 Dec - 13:26:58 10° WSW 13:33:06 21° SSW 13:42:17 10° SSE daylight
14 Dec - 07:28:03 10° SSW 07:31:19 20° SSE 07:34:57 10° ESE visible
14 Dec - 09:50:49 10° WSW 09:55:16 33° S 10:01:57 10° ESE daylight
14 Dec - 12:14:45 10° WSW 12:20:17 25° SSW 12:28:58 10° SE daylight
14 Dec - 14:44:34 10° SW 14:46:42 11° SSW 14:49:03 10° SSW daylight
15 Dec - 06:17:36 10° S 06:19:36 13° SSE 06:21:34 10° SE visible
15 Dec - 08:39:29 10° SW 08:43:25 29° S 08:48:31 10° ESE daylight
15 Dec - 11:03:00 10° WSW 11:07:51 28° S 11:15:21 10° SE daylight
15 Dec - 13:28:52 10° SW 13:33:32 15° SSW 13:39:43 10° S daylight
16 Dec - 07:28:12 10° SW 07:31:42 23° SSE 07:35:32 10° ESE visible
16 Dec - 09:51:30 10° WSW 09:55:44 30° S 10:01:52 10° SE daylight
16 Dec - 12:16:01 10° WSW 12:20:45 19° SSW 12:27:31 10° SSE daylight
17 Dec - 06:16:59 10° SSW 06:19:58 17° SSE 06:22:48 10° ESE visible
17 Dec - 08:40:01 10° WSW 08:43:52 29° S 08:48:44 10° ESE daylight
17 Dec - 11:03:58 10° WSW 11:08:19 23° SSW 11:14:37 10° SE daylight
18 Dec - 05:06:25 10° S 05:08:05 11° SSE 05:09:38 10° SE visible
18 Dec - 07:28:27 10° SW 07:32:07 25° S 07:36:02 10° ESE visible
18 Dec - 09:52:14 10° WSW 09:56:12 25° S 10:01:38 10° SE daylight
18 Dec - 12:17:56 10° SW 12:21:14 13° SSW 12:25:21 10° S daylight
19 Dec - 06:16:47 10° SW 06:20:22 20° SSE 06:23:40 10° ESE visible
19 Dec - 08:40:35 10° WSW 08:44:20 27° S 08:48:53 10° SE daylight
19 Dec - 11:05:12 10° SW 11:08:49 17° SSW 11:13:33 10° SSE daylight
